User: anonymous   Login
Location: Unspecified
(0.0000°N, 0.0000°E)
Time: 06:49:23
(UTC+00:00)
Language:

Falconsat - Orbit

View from above orbital plane
View from above orbital plane
View from above satellite
View from above satellite

Ground track
Ground track

The orbit data is extracted from the following two-line orbital elements,

1 26064U 00004D   17087.95047946 -.00000015 +00000-0 +15022-4 0  9990
2 26064 100.2259 072.4707 0037631 187.3277 172.7358 14.36118611899338
Epoch (UTC): 28 March 2017 22:48:41
Eccentricity: 0.0037631
inclination: 100.2259°
perigee height: 744 km
apogee height: 798 km
right ascension of ascending node: 72.4707°
argument of perigee: 187.3277°
revolutions per day: 14.36118611
mean anomaly at epoch: 172.7358°
orbit number at epoch: 89933

The dashed part of the orbit path shows where the satellite is in the earth's shadow,  

DLR